Weather History for KDAW - January, 2012

Change the Weather History Date:

Monday, January 16, 2012

  Actual Average (KSFM) Record (KSFM)
Temperature  
Mean Temperature 13 °F -  
Max Temperature 27 °F 26 °F 37 °F (2001)
Min Temperature 0 °F 8 °F -23 °F (2009)
Degree Days  
Heating Degree Days 52    
Moisture  
Dew Point -1 °F    
Average Humidity 53    
Maximum Humidity 72    
Minimum Humidity 37    
Precipitation  
Precipitation 0.00 in - - ()
Sea Level Pressure  
Sea Level Pressure 30.41 in    
Wind  
Wind Speed 2 mph (South)    
Max Wind Speed 7 mph    
Max Gust Speed -    
Visibility 10 miles    
Events      
Averages and records for this station are not official NWS values.
T = Trace of Precipitation, MM = Missing Value Source: NWS Daily Summary

Daily Weather History Graph

Daily Weather History Graph

Search for Another Location

Airport or City:

Trip Planner

Search our weather history database for the weather conditions in past years. The results will help you decide how hot, cold, wet, or windy it might be!

Date:

Astronomy

Jan. 16, 2012 Rise Set
Actual Time 7:12 AM EST 4:34 PM EST
Civil Twilight 6:41 AM EST 5:05 PM EST
Nautical Twilight 6:05 AM EST 5:41 PM EST
Astronomical Twilight 5:31 AM EST 6:15 PM EST
Moon 12:14 AM EST (1/16) 10:48 AM EST (1/16)
Length of Visible Light 10h 24m
Length of Day
9h 21m
Waning Gibbous, 46% of the Moon is Illuminated
Jan 16
Waning Gibbous
Jan 23
New
Jan 30
First Quarter
Feb 7
Full
Feb 14
Last Quarter

Hourly Weather History & Observations

Time (EST) Temp. Windchill Dew Point Humidity Pressure Visibility Wind Dir Wind Speed Gust Speed Precip Events Conditions
12:51 AM 3.9 °F -3.4 °F -8.0 °F 58% 30.47 in 10.0 mi Variable 3.5 mph - N/A   Clear
1:51 AM 3.0 °F - -8.0 °F 60% 30.49 in 10.0 mi Calm Calm - N/A   Clear
2:51 AM 3.9 °F - -7.1 °F 60% 30.49 in 10.0 mi Calm Calm - N/A   Clear
3:51 AM 3.9 °F -3.4 °F -7.1 °F 60% 30.50 in 10.0 mi Variable 3.5 mph - N/A   Clear
4:51 AM 1.9 °F - -7.1 °F 66% 30.50 in 10.0 mi Calm Calm - N/A   Clear
5:51 AM 1.0 °F - -6.0 °F 72% 30.51 in 10.0 mi Calm Calm - N/A   Clear
6:51 AM -0.0 °F - -7.1 °F 72% 30.52 in 10.0 mi Calm Calm - N/A   Clear
7:51 AM 1.9 °F - -6.0 °F 69% 30.53 in 10.0 mi Calm Calm - N/A   Clear
8:51 AM 5.0 °F - -5.1 °F 63% 30.54 in 10.0 mi Calm Calm - N/A   Clear
9:51 AM 10.9 °F - -2.9 °F 54% 30.52 in 10.0 mi Calm Calm - N/A   Clear
10:51 AM 16.0 °F - -2.0 °F 45% 30.50 in 10.0 mi Calm Calm - N/A   Clear
11:51 AM 19.0 °F - -0.9 °F 42% 30.45 in 10.0 mi Calm Calm - N/A   Clear
12:51 PM 21.9 °F 14.5 °F 1.0 °F 40% 30.41 in 10.0 mi South 5.8 mph - N/A   Clear
1:51 PM 24.1 °F 16.0 °F 1.0 °F 37% 30.38 in 10.0 mi South 6.9 mph - N/A   Clear
2:51 PM 24.1 °F 18.2 °F 1.0 °F 37% 30.35 in 10.0 mi South 4.6 mph - N/A   Clear
3:51 PM 24.1 °F 17.0 °F 3.0 °F 40% 30.32 in 10.0 mi South 5.8 mph - N/A   Clear
4:51 PM 24.1 °F 19.7 °F 3.0 °F 40% 30.30 in 10.0 mi South 3.5 mph - N/A   Clear
5:51 PM 24.1 °F 18.2 °F 3.9 °F 42% 30.26 in 10.0 mi South 4.6 mph - N/A   Clear
6:51 PM 25.0 °F 17.1 °F 3.9 °F 41% 30.22 in 10.0 mi South 6.9 mph - N/A   Mostly Cloudy
8:51 PM 26.1 °F 20.5 °F 9.0 °F 49% 30.19 in 10.0 mi Variable 4.6 mph - N/A   Overcast
10:51 PM 27.0 °F 23.0 °F 18.0 °F 69% 30.12 in 10.0 mi Variable 3.5 mph - N/A   Overcast